STARLINK-1478 (45755 NORAD) Tracking and Keplerian Element Data

This shows tracking and keplerian element data for the satellite.

Feedback or suggestion? Click here.




ElementValue
Catalog45755
NameSTARLINK-1478
Epoch Orbit449
Epoch Day185.62410589
Epoch Year2020
RAAN196.8899
Inclination52.9973
Eccentricity0.0002432
Argument of Perigee239.9805
Mean Anonmoly120.0968
Mean Motion15.64877483
Decay Rate-0.00571723
L11 45755U 20038AB 20185.62410589 -.00571723 00000-0 -61459-2 0 9994
L22 45755 52.9973 196.8899 0002432 239.9805 120.0968 15.64877483 4496

Live tracking and technical data element details for STARLINK-1478 (NORAD 45755). STARLINK-1478 can be tracked NOW for your location showing map with azimuth and elevation plus other details from your city location.

Track the satellite on the map from your city or location and see movement details for azimuth, elevation, latitude, longitude, range, height, and movement on the map or in text.







IsCatalogInMostPopularTable: catalog: 45755, numindb: 7
Update: records affected: 1



GetName: 45755 STARLINK-1478

Hit Count: updated at: Sun, 05 Jul 2020 16:31:53 GMT